Murgab

Tajikistan     38˚10′17″N   73˚57′59″E
temp.,
°C
wind,
m/s
gust,
m/s
humid.,
%
clouds,
%
prec.,
mm/h
press.,
hPa
HPBL,
m
1 december, tue
tue123:00−19˚wsw11665 0.0 103327
02:00−20˚wsw11752 0.0 103321
05:00−21˚ssw11811 0.0 103423
08:00−21˚wsw11829 0.0 103433
11:00−16˚sse116911 0.0 1029229
14:00−13˚se12670 0.0 1026266
17:00−17˚nne11775 0.0 102945
20:00−18˚wnw22750 0.0 103332
2 december, wed
wed223:00−19˚w12780 0.0 103527
02:00−20˚wsw118449 0.0 103624
05:00−21˚wsw118865 0.0 103820
08:00−20˚sw118787 0.0 103937
11:00−15˚sse127779 0.0 1033321
14:00−13˚se117125 0.0 1028363
17:00−18˚n118413 0.0 103246
20:00−20˚wnw22830 0.0 103536
3 december, thu
thu323:00−21˚w11760 0.0 103632
02:00−22˚w12738 0.0 103730
05:00−23˚wsw11764 0.0 103827
08:00−22˚sw11770 0.0 103945
11:00−17˚sse21670 0.0 1032297
14:00−15˚ese11640 0.0 1027286
17:00−20˚nne017518 0.0 102946
20:00−21˚nw117761 0.0 103235
4 december, fri
fri423:00−21˚w116849 0.0 103232
02:00−22˚wsw11703 0.0 103131
05:00−23˚sw11773 0.0 102832
08:00−23˚wnw117512 0.0 102836
11:00−17˚sse225840 0.0 1023296
14:00−15˚e11541 0.0 1019290
17:00−20˚nw11601 0.0 102335
20:00−19˚wnw2270100 0.0 102734
5 december, sat
sat523:00−21˚wnw118594 0.0 102933
02:00−21˚wnw1195100 0.1 103145
05:00−22˚w2293100 0.1 103341
08:00−23˚w228397 0.0 103639
11:00−18˚s127398 0.0 1029367
14:00−15˚ese126989 0.0 1024543
17:00−21˚nne018480 0.0 103066
20:00−22˚wnw228176 0.0 103332